Presure
184 185 185 191 188 203 214 229 234 230 245 255 275 262 284 277 353 354 353 353 352 353 438 426 416 407 402 398 396 394 392 393 399 397 419 419 425 404 413 436 422 366 336
183 192 191 200 212 217 231 230 245 253 269 250 267 289 345 328 324 335 353 441 436 427 420 407 399 395 385 382 379 378 377 372 377 380 381 405 419 406 393 395 410 403 399
191 192 210 223 219 233 238 233 258 266 274 267 345 337 333 348 399 430 424 416 407 398 393 391 383 379 377 376 376 376 370 371 366 364 364 375 395 406 405 389 390 405 405
188 205 222 222 240 250 247 247 261 276 265 345 354 379 434 430 422 410 401 392 383 377 377 375 373 375 379 378 378 375 370 374 369 363 359 360 373 393 403 396 388 389 396
212 216 228 248 241 236 239 255 279 307 364 430 441 428 414 407 401 392 385 373 369 372 373 374 373 365 358 360 362 354 352 348 348 372 361 355 358 373 396 404 394 381 378
216 235 246 227 257 252 268 286 365 380 438 429 418 417 413 403 396 387 372 371 375 374 370 357 353 352 351 351 355 347 348 344 356 344 365 352 348 357 380 410 404 389 385
233 240 252 254 251 335 324 375 457 436 428 459 473 449 430 411 397 381 374 371 371 356 351 346 345 368 437 461 453 457 462 360 346 338 360 354 344 350 367 396 398 401 399
244 254 257 268 278 331 388 432 432 450 440 401 388 384 417 401 390 377 371 363 350 344 342 363 405 416 432 450 445 438 453 455 342 337 360 355 343 351 366 390 393 391 391
231 259 247 318 359 464 451 447 430 404 383 378 376 377 401 380 368 364 353 341 335 344 360 402 407 428 441 445 444 445 447 461 337 339 370 356 350 357 383 379 372 368 363
249 263 256 366 459 450 444 407 388 460 442 383 365 366 372 365 360 345 336 325 347 359 403 406 435 452 457 457 462 468 469 422 337 339 362 355 364 356 349 347 364 368 356
304 271 374 481 454 421 401 467 462 469 403 367 372 369 363 355 340 331 331 341 352 398 414 444 444 448 454 463 472 479 481 337 325 355 365 355 344 331 326 321 314 313 313
266 377 490 449 416 397 489 515 432 403 381 373 364 361 347 329 326 341 337 344 404 411 433 423 423 426 434 443 454 467 333 316 355 353 343 325 319 308 305 300 299 301 304
378 492 448 413 393 389 380 414 390 372 359 368 353 335 323 320 339 329 339 350 391 429 412 406 407 412 422 430 337 336 314 356 343 334 317 309 304 300 299 294 294 295 294
492 445 407 379 385 379 390 380 374 371 353 337 333 317 324 329 329 338 337 406 384 412 401 396 396 402 384 329 321 316 346 339 331 314 302 301 297 292 289 284 291 293 280
449 409 382 362 377 380 390 379 357 338 343 326 314 330 318 326 331 339 336 402 392 400 392 386 382 371 335 314 311 341 337 331 314 303 295 293 290 287 286 289 282 288 287
416 388 367 352 372 363 360 341 342 337 317 317 327 323 305 324 337 335 337 403 380 394 384 376 366 347 323 306 339 333 331 317 296 296 281 286 287 283 283 284 284 282 284
385 369 356 347 365 352 342 340 324 317 316 305 326 310 295 305 327 333 337 404 377 392 381 372 359 338 318 307 331 331 328 300 293 287 285 285 286 282 280 280 285 279 279
367 352 345 344 348 338 334 322 319 306 313 299 333 308 301 303 309 330 332 372 377 391 377 367 354 336 318 307 311 331 312 297 294 284 286 285 285 277 282 280 281 279 278
362 349 351 345 338 329 325 319 317 309 313 298 335 309 305 299 308 320 331 347 393 383 379 369 352 342 321 310 304 299 314 296 290 286 291 288 279 279 277 286 277 279 274
361 357 353 345 337 329 317 317 311 304 309 306 328 305 304 305 299 315 331 337 383 376 384 371 360 349 333 315 304 301 300 303 291 288 284 289 284 278 275 283 285 278 278
371 361 356 347 340 332 321 299 294 312 317 319 318 304 310 304 297 297 323 333 349 401 371 376 357 349 347 326 311 302 297 306 292 287 288 286 289 277 288 277 283 285 278
378 367 320 332 322 317 299 302 323 329 329 337 302 299 306 303 299 300 321 328 337 362 385 370 367 354 345 340 324 310 305 307 308 295 285 289 287 287 283 285 283 286 286
332 319 326 324 317 303 312 338 323 323 322 299 295 298 303 304 304 307 320 325 333 343 416 377 368 361 351 344 338 327 313 308 298 303 298 294 290 284 290 287 286 283 282
321 330 329 314 305 322 313 313 316 316 316 319 321 323 322 321 321 323 325 324 329 338 350 412 374 360 360 349 339 335 333 326 318 311 313 303 301 295 296 291 296 285 284
328 325 315 323 315 311 308 304 301 300 301 306 315 323 330 334 335 335 332 331 334 340 349 401 404 372 356 355 347 337 332 328 327 315 313 308 311 307 302 293 300 306 300
319 318 320 308 302 299 295 296 301 304 302 302 306 317 327 336 344 346 343 342 340 341 352 361 412 400 376 352 350 346 336 334 328 325 323 317 311 312 309 308 303 298 303
Wind_Speed
97 101 101 107 109 114 119 126 126 122 133 135 141 123 139 132 113 110 109 108 108 107 61 59 57 57 56 54 53 53 52 50 43 44 45 50 54 61 61 63 77 110 107
101 105 107 110 112 119 125 120 128 135 142 120 131 146 120 121 118 113 110 68 62 60 58 58 56 54 54 53 53 53 52 53 48 40 43 43 49 56 60 63 68 80 87
106 109 113 115 117 124 125 120 135 138 142 136 122 121 120 117 95 71 67 63 62 62 59 56 56 56 55 55 54 53 55 54 52 48 42 44 45 51 56 60 64 69 81
106 114 119 118 125 129 124 128 142 145 139 122 119 110 81 72 66 65 62 61 60 60 59 58 58 58 56 54 52 49 49 49 52 50 45 42 42 44 51 56 59 63 68
115 119 126 131 126 122 127 137 140 132 120 90 76 74 72 68 64 61 58 58 58 57 57 57 56 56 55 54 50 47 47 46 44 44 45 41 39 40 43 51 56 59 61
116 124 130 116 132 130 137 137 117 115 77 74 71 67 64 60 57 55 55 55 55 54 52 54 55 55 54 53 50 46 45 44 45 39 41 41 41 38 37 41 47 53 57
127 127 131 131 130 125 132 123 81 76 72 58 50 49 49 50 51 50 51 52 51 52 53 53 54 57 50 45 44 40 39 43 40 37 36 41 39 36 33 35 38 42 46
129 132 136 139 141 130 113 86 77 64 57 59 58 57 42 46 46 46 46 47 50 51 53 55 54 52 47 40 34 32 32 33 35 32 33 39 35 33 30 30 32 33 35
111 139 125 129 122 73 72 71 67 63 62 60 55 51 39 42 45 45 46 48 50 54 57 55 54 47 41 33 29 27 27 27 29 27 27 32 31 26 23 18 20 18 22
133 137 137 119 76 64 66 67 67 50 41 49 50 48 42 42 43 44 45 47 50 54 51 52 45 37 30 25 22 20 19 23 24 20 19 24 23 18 15 13 13 16 12
133 135 119 67 64 65 64 50 45 35 37 44 42 40 41 41 43 44 47 49 52 48 46 34 27 22 18 14 10 9 11 18 17 17 21 20 18 20 18 16 16 14 13
139 117 59 60 61 58 40 41 27 30 33 35 37 38 40 43 44 46 49 50 45 42 27 22 17 14 11 7 3 2 14 15 16 21 22 25 24 23 21 21 19 17 15
117 55 56 57 56 51 48 27 29 33 37 33 35 38 42 44 44 47 49 49 43 26 21 15 12 9 6 3 11 13 14 20 22 26 28 28 25 23 22 20 18 16 17
50 53 56 56 51 49 39 35 33 31 32 36 36 40 42 41 44 45 48 41 41 22 15 10 7 5 8 13 12 13 21 22 28 30 27 25 24 22 20 19 17 16 23
49 52 52 53 47 44 33 33 34 36 35 37 39 39 40 42 43 42 44 34 32 19 12 6 1 7 14 13 13 22 23 28 31 29 25 24 23 22 20 19 21 18 19
49 49 49 51 43 40 37 38 36 36 39 40 40 39 40 41 42 41 44 32 31 16 10 3 6 14 16 15 20 24 27 32 26 27 22 23 24 22 22 21 21 21 19
50 49 48 48 41 39 37 36 39 39 40 44 41 41 43 44 43 43 43 29 28 14 9 7 11 18 19 18 23 27 33 28 27 26 25 26 26 24 24 24 22 22 22
51 50 48 45 40 38 37 38 38 42 42 46 41 41 42 43 43 42 41 35 25 14 10 11 14 21 22 21 22 31 33 28 29 26 28 28 28 26 25 26 25 24 24
49 48 44 42 39 38 38 38 39 40 40 45 38 39 40 41 41 41 39 37 22 17 12 14 18 22 27 26 25 26 36 30 29 29 32 32 29 29 28 29 28 28 27
46 43 40 39 37 37 39 39 40 42 42 44 38 38 39 39 39 41 40 37 27 19 15 15 19 23 28 31 30 30 32 38 33 33 32 35 33 32 30 31 32 32 32
39 40 38 37 36 36 38 42 44 43 41 41 37 39 39 39 39 40 40 37 33 19 17 17 20 24 28 33 35 34 34 41 37 36 37 38 39 35 38 35 35 35 35
37 35 40 36 38 38 42 44 43 41 39 36 37 41 41 40 40 40 40 38 34 28 18 17 22 26 29 33 37 39 39 42 47 43 39 42 42 42 40 39 38 38 37
40 40 38 37 38 41 41 38 39 39 36 40 42 43 43 43 43 42 40 38 34 31 20 20 21 27 30 34 37 41 43 44 44 47 48 48 47 43 45 44 42 40 39
39 37 35 37 40 37 38 39 39 39 40 41 42 44 44 45 45 44 41 38 34 31 27 20 23 25 31 35 37 40 43 46 48 49 52 52 52 51 52 49 50 44 43
36 34 35 34 35 36 37 39 41 42 43 44 45 46 47 46 44 43 41 38 35 32 29 23 21 27 28 34 38 40 43 45 48 50 51 53 55 56 55 51 53 55 52
35 34 31 34 36 38 40 42 43 44 45 47 49 50 51 50 47 43 41 38 35 33 31 27 22 22 30 32 36 40 43 46 48 49 52 54 55 56 57 58 55 51 53
Wind_Direction
310 310 311 308 310 306 307 307 307 308 308 306 304 304 306 304 300 299 298 298 297 297 292 292 290 288 287 284 282 279 277 274 270 265 263 256 250 247 243 237 237 235 238
308 306 306 305 307 307 307 309 311 309 307 305 310 304 302 300 300 299 300 301 300 297 296 294 292 288 286 283 280 279 277 276 273 264 263 258 248 246 241 239 234 233 234
306 307 306 307 308 308 310 311 313 313 311 311 304 303 301 302 304 304 302 302 300 300 297 294 291 289 287 284 280 276 273 272 270 264 258 258 253 248 245 239 236 233 231
309 307 308 309 308 311 311 316 315 309 310 304 305 304 305 306 304 303 303 301 301 299 297 295 293 292 289 285 282 280 275 269 264 263 257 254 254 250 243 242 238 236 235
309 310 310 309 315 317 315 314 309 308 307 307 307 306 305 303 304 303 302 301 300 298 296 295 294 292 289 286 283 277 274 271 269 262 255 252 251 251 247 240 238 240 238
310 311 310 314 315 315 312 312 311 309 309 310 308 305 302 303 302 302 302 302 299 299 298 296 295 293 290 286 281 274 267 264 261 262 250 249 249 251 254 244 239 236 239
312 312 315 317 318 311 313 314 317 317 314 311 310 304 303 302 302 304 304 302 303 301 300 299 297 295 299 294 286 282 275 256 257 260 249 243 248 253 254 248 240 237 237
314 316 320 319 318 316 314 313 315 312 312 312 311 313 306 306 309 308 306 307 304 304 303 303 304 305 304 297 284 276 272 261 253 256 244 239 244 249 251 247 242 238 236
317 319 322 319 316 314 312 309 313 314 313 312 315 314 312 312 311 312 312 309 310 310 310 309 308 308 304 295 282 270 262 255 250 251 232 232 238 242 241 224 225 227 232
320 318 321 316 316 312 310 313 313 312 312 313 315 313 314 314 314 313 312 310 315 315 313 313 312 311 306 298 286 273 254 243 239 246 221 218 219 205 198 197 227 236 232
316 321 318 318 316 314 314 307 308 305 314 317 314 316 316 317 316 316 317 320 321 320 319 320 323 325 325 319 301 272 242 221 237 212 199 187 175 164 164 171 187 198 210
320 320 320 318 318 318 310 299 316 320 322 316 318 318 318 318 319 324 322 325 326 327 330 332 338 344 350 354 343 213 206 225 188 176 168 162 161 172 179 193 202 208 218
321 321 322 321 322 325 325 333 330 326 322 323 321 321 320 321 328 326 326 328 333 334 336 341 350 0 11 49 179 182 215 169 171 164 164 168 176 182 186 195 207 215 225
321 323 322 323 327 328 327 327 328 326 325 322 323 321 324 328 329 329 330 333 335 334 333 346 2 25 144 173 189 204 169 173 166 168 177 182 186 191 201 216 215 222 235
321 321 322 324 328 329 327 328 329 325 325 324 323 328 328 331 332 333 334 334 334 330 329 336 31 160 175 195 205 173 175 170 174 180 190 194 197 204 213 214 226 233 242
320 321 323 324 328 330 329 330 327 326 323 324 329 329 329 334 336 337 338 335 336 325 308 279 191 181 191 208 180 181 179 178 191 194 212 208 206 217 220 225 232 237 248
321 322 323 325 327 327 327 328 325 325 325 326 330 328 328 333 339 341 341 334 335 314 290 241 202 192 201 210 189 185 183 195 201 209 214 216 216 222 228 232 237 242 249
321 322 321 323 325 324 325 325 325 324 325 327 329 326 328 332 337 342 341 342 333 309 278 243 213 202 206 211 205 193 196 206 211 221 220 223 225 233 235 239 243 247 254
320 320 319 321 321 321 322 324 325 325 325 325 327 325 328 330 336 340 341 343 329 319 274 249 225 212 209 214 215 215 206 218 221 225 224 227 235 238 243 242 248 253 257
318 317 317 317 317 319 321 324 325 327 326 325 324 325 327 328 331 338 342 343 337 321 282 252 235 225 216 217 220 221 221 219 228 231 235 233 238 243 248 248 251 253 259
317 316 316 317 317 319 321 324 325 326 324 324 323 325 326 327 330 333 339 341 342 310 301 258 244 235 226 221 223 225 227 223 231 235 237 239 240 246 246 250 253 257 261
317 316 321 319 320 322 322 324 325 325 324 325 324 324 325 325 327 330 336 337 338 337 295 276 249 241 234 229 226 228 229 228 228 236 242 242 245 247 249 251 253 257 260
319 320 320 320 321 321 324 326 327 328 328 325 323 322 322 323 324 327 331 332 334 334 306 280 261 246 239 236 233 231 232 233 236 236 240 244 247 250 252 254 255 257 260
320 319 320 321 322 326 327 328 330 329 327 326 325 324 322 321 321 323 326 326 328 330 328 292 267 256 245 240 239 237 236 236 237 239 240 244 247 250 253 255 258 257 258
319 319 321 324 326 328 331 332 331 330 329 331 332 332 329 326 323 321 321 322 324 326 324 315 284 260 253 246 242 242 241 240 240 242 244 246 247 250 253 256 259 262 262
318 319 322 324 327 328 329 330 330 330 329 329 332 334 332 329 326 322 321 320 321 322 322 319 303 278 256 252 247 245 244 244 244 245 246 248 251 253 256 258 261 263 266